Regional Weather Roundup
Issued by NWS Binghamton, NY

Home | Current Version | Previous Version | Text Only | Print | Product List | Glossary On
Versions: 1 2 3 4 5 6 7 8 9 10 11 12 13 14 15 16 17 18 19 20 21 22 23 24 25 26 27 28 29 30 31 32 33 34 35 36 37 38 39 40 41 42 43 44 45 46 47 48 49 50
000
ASUS41 KBGM 292310
RWRBGM
RWRBGM
BINGHAMTON REGIONAL WEATHER ROUNDUP
NATIONAL WEATHER SERVICE BINGHAMTON NY
700 PM EDT FRI MAY 29 2015

Note: "fair" indicates few or no clouds below 12,000 feet with no
significant weather and/or obstructions to visibility.

* = Station(s) that does not report precipitation, such as rain,
snow, etc, also no thunder or fog.

!NYZ009-015>018-022>025-036-037-044>046-055>057-062-300000
...CENTRAL NEW YORK...

CITY           SKY/WX    TMP DP  RH WIND       PRES   REMARKS
BINGHAMTON     MOSUNNY   76  55  48 S6        30.19F
CORTLAND       FAIR      79  55  44 S10       30.16F
DANSVILLE      PTSUNNY   84  59  42 S9        30.09F
ELMIRA         MOSUNNY   82  60  47 S7        30.13F
ITHACA         PTSUNNY   80  57  45 S13       30.15F
MONTICELLO     PTSUNNY   75  55  50 S9        30.24S
NORWICH        SUNNY     79  48  34 S5        30.18S
ONEONTA        SUNNY     73  50  43 CALM      30.21F
PENN YAN       PTSUNNY   82  59  45 S12       30.12F
ROME           CLOUDY    78  55  44 E7        30.15F
SIDNEY         SUNNY     81  55  41 CALM      30.18S
SYRACUSE       PTSUNNY   78  57  48 E7        30.11F
$$

!PAZ038>040-043-044-047-048-072-300000
...NORTHEAST PENNSYLVANIA...

CITY           SKY/WX    TMP DP  RH WIND       PRES   REMARKS
HAZLETON       MOSUNNY   77  59  53 S6        30.26S
SCRANTON       PTSUNNY   82  56  40 S6        30.18F
TOWANDA*         N/A     82  59  44 MISG      30.15F
$$
&&
KEY
WCI = WIND CHILL INDEX
VSB = VISIBILITY
HX  = HEAT INDEX
$$



USA.gov is the U.S. government's official web portal to all federal, state and local government web resources and services.